Location: Pian di Sc�
(43.6333°N, 11.5500°E)
Time: 17:30:58
(UTC+00:00)

Cosmos 1953 - Pass Details

Date: 07 August 2020
Orbit: 538 x 558 km, 82.5° (Epoch: 17 September)

Event Time Altitude Azimuth Distance (km) Brightness Sun altitude
Exits shadow 03:35:47 - 235° (SW) 1,992 4.5 -6.3°
Reaches altitude 10° 03:36:20 10° 240° (WSW) 1,821 4.3 -6.2°
Maximum altitude 03:39:19 20° 288° (WNW) 1,317 3.9 -5.8°
Drops below altitude 10° 03:42:19 10° 337° (NNW) 1,841 5.1 -5.3°
Sets 03:45:00 0° 354° (N) 2,745 6.2 -4.9°
